owner,sensor,date,latitude,longitude,sea_surface_height_above_sea_level,qcFlag 
COMPS,ioos:station:USF.COMPS:ARP:1,2009-11-01T00:00:00Z,28.4330,-82.6670,-0.041,1111122 
COMPS,ioos:station:USF.COMPS:ARP:1,2009-11-01T00:06:00Z,28.4330,-82.6670,-0.03,1111122 
COMPS,ioos:station:USF.COMPS:ARP:1,2009-11-01T00:12:00Z,28.4330,-82.6670,-0.022,1111122 
COMPS,ioos:station:USF.COMPS:ARP:1,2009-11-01T00:18:00Z,28.4330,-82.6670,-0.011,1111122 
COMPS,ioos:station:USF.COMPS:ARP:1,2009-11-01T00:24:00Z,28.4330,-82.6670,-0.005,1111122 
COMPS,ioos:station:USF.COMPS:ARP:1,2009-11-01T00:30:00Z,28.4330,-82.6670,0.008,1111122 
COMPS,ioos:station:USF.COMPS:ARP:1,2009-11-01T00:36:00Z,28.4330,-82.6670,0.021,1111122 
COMPS,ioos:station:USF.COMPS:ARP:1,2009-11-01T00:42:00Z,28.4330,-82.6670,0.031,1111122 
COMPS,ioos:station:USF.COMPS:ARP:1,2009-11-01T00:48:00Z,28.4330,-82.6670,0.046,1111122 
COMPS,ioos:station:USF.COMPS:ARP:1,2009-11-01T00:54:00Z,28.4330,-82.6670,0.061,1111122 
COMPS,ioos:station:USF.COMPS:ARP:1,2009-11-01T01:00:00Z,28.4330,-82.6670,0.074,1111122 
COMPS,ioos:station:USF.COMPS:ARP:1,2009-11-01T01:06:00Z,28.4330,-82.6670,0.091,1111122 
COMPS,ioos:station:USF.COMPS:ARP:1,2009-11-01T01:12:00Z,28.4330,-82.6670,0.108,1111122 
COMPS,ioos:station:USF.COMPS:ARP:1,2009-11-01T01:18:00Z,28.4330,-82.6670,0.125,1111122 
COMPS,ioos:station:USF.COMPS:ARP:1,2009-11-01T01:24:00Z,28.4330,-82.6670,0.143,1111122 
COMPS,ioos:station:USF.COMPS:ARP:1,2009-11-01T01:30:00Z,28.4330,-82.6670,0.16,1111122 
COMPS,ioos:station:USF.COMPS:ARP:1,2009-11-01T01:36:00Z,28.4330,-82.6670,0.178,1111122 
COMPS,ioos:station:USF.COMPS:ARP:1,2009-11-01T01:42:00Z,28.4330,-82.6670,0.196,1111122 
COMPS,ioos:station:USF.COMPS:ARP:1,2009-11-01T01:48:00Z,28.4330,-82.6670,0.216,1111122 
COMPS,ioos:station:USF.COMPS:ARP:1,2009-11-01T01:54:00Z,28.4330,-82.6670,0.234,1111122 
COMPS,ioos:station:USF.COMPS:ARP:1,2009-11-01T02:00:00Z,28.4330,-82.6670,0.252,1111122 
COMPS,ioos:station:USF.COMPS:ARP:1,2009-11-01T02:06:00Z,28.4330,-82.6670,0.27,1111122 
COMPS,ioos:station:USF.COMPS:ARP:1,2009-11-01T02:12:00Z,28.4330,-82.6670,0.29,1111122 
COMPS,ioos:station:USF.COMPS:ARP:1,2009-11-01T02:18:00Z,28.4330,-82.6670,0.31,1111122 
COMPS,ioos:station:USF.COMPS:ARP:1,2009-11-01T02:24:00Z,28.4330,-82.6670,0.329,1111122 
COMPS,ioos:station:USF.COMPS:ARP:1,2009-11-01T02:30:00Z,28.4330,-82.6670,0.348,1111122 
COMPS,ioos:station:USF.COMPS:ARP:1,2009-11-01T02:36:00Z,28.4330,-82.6670,0.365,1111122 
COMPS,ioos:station:USF.COMPS:ARP:1,2009-11-01T02:42:00Z,28.4330,-82.6670,0.386,1111122 
COMPS,ioos:station:USF.COMPS:ARP:1,2009-11-01T02:48:00Z,28.4330,-82.6670,0.405,1111122 
COMPS,ioos:station:USF.COMPS:ARP:1,2009-11-01T02:54:00Z,28.4330,-82.6670,0.422,1111122 
COMPS,ioos:station:USF.COMPS:ARP:1,2009-11-01T03:00:00Z,28.4330,-82.6670,0.441,1111122 
COMPS,ioos:station:USF.COMPS:ARP:1,2009-11-01T03:06:00Z,28.4330,-82.6670,0.458,1111122 
COMPS,ioos:station:USF.COMPS:ARP:1,2009-11-01T03:12:00Z,28.4330,-82.6670,0.476,1111122 
COMPS,ioos:station:USF.COMPS:ARP:1,2009-11-01T03:18:00Z,28.4330,-82.6670,0.495,1111122 
COMPS,ioos:station:USF.COMPS:ARP:1,2009-11-01T03:24:00Z,28.4330,-82.6670,0.514,1111122 
COMPS,ioos:station:USF.COMPS:ARP:1,2009-11-01T03:30:00Z,28.4330,-82.6670,0.529,1111122 
COMPS,ioos:station:USF.COMPS:ARP:1,2009-11-01T03:36:00Z,28.4330,-82.6670,0.548,1111122 
COMPS,ioos:station:USF.COMPS:ARP:1,2009-11-01T03:42:00Z,28.4330,-82.6670,0.564,1111122 
COMPS,ioos:station:USF.COMPS:ARP:1,2009-11-01T03:48:00Z,28.4330,-82.6670,0.576,1111122 
COMPS,ioos:station:USF.COMPS:ARP:1,2009-11-01T03:54:00Z,28.4330,-82.6670,0.587,1111122 
COMPS,ioos:station:USF.COMPS:ARP:1,2009-11-01T04:00:00Z,28.4330,-82.6670,0.6,1111122 
COMPS,ioos:station:USF.COMPS:ARP:1,2009-11-01T04:06:00Z,28.4330,-82.6670,0.612,1111122 
COMPS,ioos:station:USF.COMPS:ARP:1,2009-11-01T04:12:00Z,28.4330,-82.6670,0.618,1111122 
COMPS,ioos:station:USF.COMPS:ARP:1,2009-11-01T04:18:00Z,28.4330,-82.6670,0.627,1111122 
COMPS,ioos:station:USF.COMPS:ARP:1,2009-11-01T04:24:00Z,28.4330,-82.6670,0.629,1111122 
COMPS,ioos:station:USF.COMPS:ARP:1,2009-11-01T04:30:00Z,28.4330,-82.6670,0.634,1111122 
COMPS,ioos:station:USF.COMPS:ARP:1,2009-11-01T04:36:00Z,28.4330,-82.6670,0.632,1111122 
COMPS,ioos:station:USF.COMPS:ARP:1,2009-11-01T04:42:00Z,28.4330,-82.6670,0.628,1111122 
COMPS,ioos:station:USF.COMPS:ARP:1,2009-11-01T04:48:00Z,28.4330,-82.6670,0.624,1111122 
COMPS,ioos:station:USF.COMPS:ARP:1,2009-11-01T04:54:00Z,28.4330,-82.6670,0.617,1111122 
COMPS,ioos:station:USF.COMPS:ARP:1,2009-11-01T05:00:00Z,28.4330,-82.6670,0.605,1111122 
COMPS,ioos:station:USF.COMPS:ARP:1,2009-11-01T05:06:00Z,28.4330,-82.6670,0.597,1111122 
COMPS,ioos:station:USF.COMPS:ARP:1,2009-11-01T05:12:00Z,28.4330,-82.6670,0.582,1111122 
COMPS,ioos:station:USF.COMPS:ARP:1,2009-11-01T05:18:00Z,28.4330,-82.6670,0.572,1111122 
COMPS,ioos:station:USF.COMPS:ARP:1,2009-11-01T05:24:00Z,28.4330,-82.6670,0.566,1111122 
COMPS,ioos:station:USF.COMPS:ARP:1,2009-11-01T05:30:00Z,28.4330,-82.6670,0.558,1111122 
COMPS,ioos:station:USF.COMPS:ARP:1,2009-11-01T05:36:00Z,28.4330,-82.6670,0.54,1111122 
COMPS,ioos:station:USF.COMPS:ARP:1,2009-11-01T05:42:00Z,28.4330,-82.6670,0.525,1111122 
COMPS,ioos:station:USF.COMPS:ARP:1,2009-11-01T05:48:00Z,28.4330,-82.6670,0.518,1111122 
COMPS,ioos:station:USF.COMPS:ARP:1,2009-11-01T05:54:00Z,28.4330,-82.6670,0.507,1111122 
COMPS,ioos:station:USF.COMPS:ARP:1,2009-11-01T06:00:00Z,28.4330,-82.6670,0.492,1111122 
COMPS,ioos:station:USF.COMPS:ARP:1,2009-11-01T06:06:00Z,28.4330,-82.6670,0.472,1111122 
COMPS,ioos:station:USF.COMPS:ARP:1,2009-11-01T06:12:00Z,28.4330,-82.6670,0.459,1111122 
COMPS,ioos:station:USF.COMPS:ARP:1,2009-11-01T06:18:00Z,28.4330,-82.6670,0.443,1111122 
COMPS,ioos:station:USF.COMPS:ARP:1,2009-11-01T06:24:00Z,28.4330,-82.6670,0.429,1111122 
COMPS,ioos:station:USF.COMPS:ARP:1,2009-11-01T06:30:00Z,28.4330,-82.6670,0.427,1111122 
COMPS,ioos:station:USF.COMPS:ARP:1,2009-11-01T06:36:00Z,28.4330,-82.6670,0.429,1111122 
COMPS,ioos:station:USF.COMPS:ARP:1,2009-11-01T06:42:00Z,28.4330,-82.6670,0.427,1111122 
COMPS,ioos:station:USF.COMPS:ARP:1,2009-11-01T06:48:00Z,28.4330,-82.6670,0.425,1111122 
COMPS,ioos:station:USF.COMPS:ARP:1,2009-11-01T06:54:00Z,28.4330,-82.6670,0.423,1111122 
COMPS,ioos:station:USF.COMPS:ARP:1,2009-11-01T07:00:00Z,28.4330,-82.6670,0.415,1111122 
COMPS,ioos:station:USF.COMPS:ARP:1,2009-11-01T07:06:00Z,28.4330,-82.6670,0.404,1111122 
COMPS,ioos:station:USF.COMPS:ARP:1,2009-11-01T07:12:00Z,28.4330,-82.6670,0.39,1111122 
COMPS,ioos:station:USF.COMPS:ARP:1,2009-11-01T07:18:00Z,28.4330,-82.6670,0.369,1111122 
COMPS,ioos:station:USF.COMPS:ARP:1,2009-11-01T07:24:00Z,28.4330,-82.6670,0.35,1111122 
COMPS,ioos:station:USF.COMPS:ARP:1,2009-11-01T07:30:00Z,28.4330,-82.6670,0.334,1111122 
COMPS,ioos:station:USF.COMPS:ARP:1,2009-11-01T07:36:00Z,28.4330,-82.6670,0.316,1111122 
COMPS,ioos:station:USF.COMPS:ARP:1,2009-11-01T07:42:00Z,28.4330,-82.6670,0.3,1111122 
COMPS,ioos:station:USF.COMPS:ARP:1,2009-11-01T07:48:00Z,28.4330,-82.6670,0.285,1111122 
COMPS,ioos:station:USF.COMPS:ARP:1,2009-11-01T07:54:00Z,28.4330,-82.6670,0.268,1111122 
COMPS,ioos:station:USF.COMPS:ARP:1,2009-11-01T08:00:00Z,28.4330,-82.6670,0.25,1111122 
COMPS,ioos:station:USF.COMPS:ARP:1,2009-11-01T08:06:00Z,28.4330,-82.6670,0.231,1111122 
COMPS,ioos:station:USF.COMPS:ARP:1,2009-11-01T08:12:00Z,28.4330,-82.6670,0.211,1111122 
COMPS,ioos:station:USF.COMPS:ARP:1,2009-11-01T08:18:00Z,28.4330,-82.6670,0.191,1111122 
COMPS,ioos:station:USF.COMPS:ARP:1,2009-11-01T08:24:00Z,28.4330,-82.6670,0.171,1111122 
COMPS,ioos:station:USF.COMPS:ARP:1,2009-11-01T08:30:00Z,28.4330,-82.6670,0.149,1111122 
COMPS,ioos:station:USF.COMPS:ARP:1,2009-11-01T08:36:00Z,28.4330,-82.6670,0.128,1111122 
COMPS,ioos:station:USF.COMPS:ARP:1,2009-11-01T08:42:00Z,28.4330,-82.6670,0.107,1111122 
COMPS,ioos:station:USF.COMPS:ARP:1,2009-11-01T08:48:00Z,28.4330,-82.6670,0.085,1111122 
COMPS,ioos:station:USF.COMPS:ARP:1,2009-11-01T08:54:00Z,28.4330,-82.6670,0.064,1111122 
COMPS,ioos:station:USF.COMPS:ARP:1,2009-11-01T09:00:00Z,28.4330,-82.6670,0.041,1111122 
COMPS,ioos:station:USF.COMPS:ARP:1,2009-11-01T09:06:00Z,28.4330,-82.6670,0.02,1111122 
COMPS,ioos:station:USF.COMPS:ARP:1,2009-11-01T09:12:00Z,28.4330,-82.6670,-0.002,1111122 
COMPS,ioos:station:USF.COMPS:ARP:1,2009-11-01T09:18:00Z,28.4330,-82.6670,-0.024,1111122 
COMPS,ioos:station:USF.COMPS:ARP:1,2009-11-01T09:24:00Z,28.4330,-82.6670,-0.046,1111122 
COMPS,ioos:station:USF.COMPS:ARP:1,2009-11-01T09:30:00Z,28.4330,-82.6670,-0.067,1111122 
COMPS,ioos:station:USF.COMPS:ARP:1,2009-11-01T09:36:00Z,28.4330,-82.6670,-0.087,1111122 
COMPS,ioos:station:USF.COMPS:ARP:1,2009-11-01T09:42:00Z,28.4330,-82.6670,-0.106,1111122 
COMPS,ioos:station:USF.COMPS:ARP:1,2009-11-01T09:48:00Z,28.4330,-82.6670,-0.125,1111122 
COMPS,ioos:station:USF.COMPS:ARP:1,2009-11-01T09:54:00Z,28.4330,-82.6670,-0.143,1111122 
COMPS,ioos:station:USF.COMPS:ARP:1,2009-11-01T10:00:00Z,28.4330,-82.6670,-0.16,1111122 
COMPS,ioos:station:USF.COMPS:ARP:1,2009-11-01T10:06:00Z,28.4330,-82.6670,-0.177,1111122 
COMPS,ioos:station:USF.COMPS:ARP:1,2009-11-01T10:12:00Z,28.4330,-82.6670,-0.193,1111122 
COMPS,ioos:station:USF.COMPS:ARP:1,2009-11-01T10:18:00Z,28.4330,-82.6670,-0.209,1111122 
COMPS,ioos:station:USF.COMPS:ARP:1,2009-11-01T10:24:00Z,28.4330,-82.6670,-0.224,1111122 
COMPS,ioos:station:USF.COMPS:ARP:1,2009-11-01T10:30:00Z,28.4330,-82.6670,-0.239,1111122 
COMPS,ioos:station:USF.COMPS:ARP:1,2009-11-01T10:36:00Z,28.4330,-82.6670,-0.253,1111122 
COMPS,ioos:station:USF.COMPS:ARP:1,2009-11-01T10:42:00Z,28.4330,-82.6670,-0.266,1111122 
COMPS,ioos:station:USF.COMPS:ARP:1,2009-11-01T10:48:00Z,28.4330,-82.6670,-0.279,1111122 
COMPS,ioos:station:USF.COMPS:ARP:1,2009-11-01T10:54:00Z,28.4330,-82.6670,-0.291,1111122 
COMPS,ioos:station:USF.COMPS:ARP:1,2009-11-01T11:00:00Z,28.4330,-82.6670,-0.303,1111122 
COMPS,ioos:station:USF.COMPS:ARP:1,2009-11-01T11:06:00Z,28.4330,-82.6670,-0.315,1111122 
COMPS,ioos:station:USF.COMPS:ARP:1,2009-11-01T11:12:00Z,28.4330,-82.6670,-0.327,1111122 
COMPS,ioos:station:USF.COMPS:ARP:1,2009-11-01T11:18:00Z,28.4330,-82.6670,-0.34,1111122 
COMPS,ioos:station:USF.COMPS:ARP:1,2009-11-01T11:24:00Z,28.4330,-82.6670,-0.351,1111122 
COMPS,ioos:station:USF.COMPS:ARP:1,2009-11-01T11:30:00Z,28.4330,-82.6670,-0.361,1111122 
COMPS,ioos:station:USF.COMPS:ARP:1,2009-11-01T11:36:00Z,28.4330,-82.6670,-0.371,1111122 
COMPS,ioos:station:USF.COMPS:ARP:1,2009-11-01T11:42:00Z,28.4330,-82.6670,-0.381,1111122 
COMPS,ioos:station:USF.COMPS:ARP:1,2009-11-01T11:48:00Z,28.4330,-82.6670,-0.391,1111122 
COMPS,ioos:station:USF.COMPS:ARP:1,2009-11-01T11:54:00Z,28.4330,-82.6670,-0.4,1111122 
COMPS,ioos:station:USF.COMPS:ARP:1,2009-11-01T12:00:00Z,28.4330,-82.6670,-0.409,1111122 
COMPS,ioos:station:USF.COMPS:ARP:1,2009-11-01T12:06:00Z,28.4330,-82.6670,-0.418,1111122 
COMPS,ioos:station:USF.COMPS:ARP:1,2009-11-01T12:12:00Z,28.4330,-82.6670,-0.426,1111122 
COMPS,ioos:station:USF.COMPS:ARP:1,2009-11-01T12:18:00Z,28.4330,-82.6670,-0.433,1111122 
COMPS,ioos:station:USF.COMPS:ARP:1,2009-11-01T12:24:00Z,28.4330,-82.6670,-0.439,1111122 
COMPS,ioos:station:USF.COMPS:ARP:1,2009-11-01T12:30:00Z,28.4330,-82.6670,-0.446,1111122 
COMPS,ioos:station:USF.COMPS:ARP:1,2009-11-01T12:36:00Z,28.4330,-82.6670,-0.453,1111122 
COMPS,ioos:station:USF.COMPS:ARP:1,2009-11-01T12:42:00Z,28.4330,-82.6670,-0.459,1111122 
COMPS,ioos:station:USF.COMPS:ARP:1,2009-11-01T12:48:00Z,28.4330,-82.6670,-0.465,1111122 
COMPS,ioos:station:USF.COMPS:ARP:1,2009-11-01T12:54:00Z,28.4330,-82.6670,-0.469,1111122 
COMPS,ioos:station:USF.COMPS:ARP:1,2009-11-01T13:00:00Z,28.4330,-82.6670,-0.472,1111122 
COMPS,ioos:station:USF.COMPS:ARP:1,2009-11-01T13:06:00Z,28.4330,-82.6670,-0.474,1111122 
COMPS,ioos:station:USF.COMPS:ARP:1,2009-11-01T13:12:00Z,28.4330,-82.6670,-0.474,1111122 
COMPS,ioos:station:USF.COMPS:ARP:1,2009-11-01T13:18:00Z,28.4330,-82.6670,-0.471,1111122 
COMPS,ioos:station:USF.COMPS:ARP:1,2009-11-01T13:24:00Z,28.4330,-82.6670,-0.467,1111122 
COMPS,ioos:station:USF.COMPS:ARP:1,2009-11-01T13:30:00Z,28.4330,-82.6670,-0.462,1111122 
COMPS,ioos:station:USF.COMPS:ARP:1,2009-11-01T13:36:00Z,28.4330,-82.6670,-0.454,1111122 
COMPS,ioos:station:USF.COMPS:ARP:1,2009-11-01T13:42:00Z,28.4330,-82.6670,-0.445,1111122 
COMPS,ioos:station:USF.COMPS:ARP:1,2009-11-01T13:48:00Z,28.4330,-82.6670,-0.435,1111122 
COMPS,ioos:station:USF.COMPS:ARP:1,2009-11-01T13:54:00Z,28.4330,-82.6670,-0.423,1111122 
COMPS,ioos:station:USF.COMPS:ARP:1,2009-11-01T14:00:00Z,28.4330,-82.6670,-0.408,1111122 
COMPS,ioos:station:USF.COMPS:ARP:1,2009-11-01T14:06:00Z,28.4330,-82.6670,-0.391,1111122 
COMPS,ioos:station:USF.COMPS:ARP:1,2009-11-01T14:12:00Z,28.4330,-82.6670,-0.373,1111122 
COMPS,ioos:station:USF.COMPS:ARP:1,2009-11-01T14:18:00Z,28.4330,-82.6670,-0.354,1111122 
COMPS,ioos:station:USF.COMPS:ARP:1,2009-11-01T14:24:00Z,28.4330,-82.6670,-0.334,1111122 
COMPS,ioos:station:USF.COMPS:ARP:1,2009-11-01T14:30:00Z,28.4330,-82.6670,-0.312,1111122 
COMPS,ioos:station:USF.COMPS:ARP:1,2009-11-01T14:36:00Z,28.4330,-82.6670,-0.288,1111122 
COMPS,ioos:station:USF.COMPS:ARP:1,2009-11-01T14:42:00Z,28.4330,-82.6670,-0.263,1111122 
COMPS,ioos:station:USF.COMPS:ARP:1,2009-11-01T14:48:00Z,28.4330,-82.6670,-0.236,1111122 
COMPS,ioos:station:USF.COMPS:ARP:1,2009-11-01T14:54:00Z,28.4330,-82.6670,-0.207,1111122 
COMPS,ioos:station:USF.COMPS:ARP:1,2009-11-01T15:00:00Z,28.4330,-82.6670,-0.177,1111122 
COMPS,ioos:station:USF.COMPS:ARP:1,2009-11-01T15:06:00Z,28.4330,-82.6670,-0.145,1111122 
COMPS,ioos:station:USF.COMPS:ARP:1,2009-11-01T15:12:00Z,28.4330,-82.6670,-0.113,1111122 
COMPS,ioos:station:USF.COMPS:ARP:1,2009-11-01T15:18:00Z,28.4330,-82.6670,-0.08,1111122 
COMPS,ioos:station:USF.COMPS:ARP:1,2009-11-01T15:24:00Z,28.4330,-82.6670,-0.048,1111122 
COMPS,ioos:station:USF.COMPS:ARP:1,2009-11-01T15:30:00Z,28.4330,-82.6670,-0.017,1111122 
COMPS,ioos:station:USF.COMPS:ARP:1,2009-11-01T15:36:00Z,28.4330,-82.6670,0.015,1111122 
COMPS,ioos:station:USF.COMPS:ARP:1,2009-11-01T15:42:00Z,28.4330,-82.6670,0.044,1111122 
COMPS,ioos:station:USF.COMPS:ARP:1,2009-11-01T15:48:00Z,28.4330,-82.6670,0.071,1111122 
COMPS,ioos:station:USF.COMPS:ARP:1,2009-11-01T15:54:00Z,28.4330,-82.6670,0.096,1111122 
COMPS,ioos:station:USF.COMPS:ARP:1,2009-11-01T16:00:00Z,28.4330,-82.6670,0.12,1111122 
COMPS,ioos:station:USF.COMPS:ARP:1,2009-11-01T16:06:00Z,28.4330,-82.6670,0.144,1111122 
COMPS,ioos:station:USF.COMPS:ARP:1,2009-11-01T16:12:00Z,28.4330,-82.6670,0.167,1111122 
COMPS,ioos:station:USF.COMPS:ARP:1,2009-11-01T16:18:00Z,28.4330,-82.6670,0.192,1111122 
COMPS,ioos:station:USF.COMPS:ARP:1,2009-11-01T16:24:00Z,28.4330,-82.6670,0.213,1111122 
COMPS,ioos:station:USF.COMPS:ARP:1,2009-11-01T16:30:00Z,28.4330,-82.6670,0.233,1111122 
COMPS,ioos:station:USF.COMPS:ARP:1,2009-11-01T16:36:00Z,28.4330,-82.6670,0.253,1111122 
COMPS,ioos:station:USF.COMPS:ARP:1,2009-11-01T16:42:00Z,28.4330,-82.6670,0.273,1111122 
COMPS,ioos:station:USF.COMPS:ARP:1,2009-11-01T16:48:00Z,28.4330,-82.6670,0.292,1111122 
COMPS,ioos:station:USF.COMPS:ARP:1,2009-11-01T16:54:00Z,28.4330,-82.6670,0.309,1111122 
COMPS,ioos:station:USF.COMPS:ARP:1,2009-11-01T17:00:00Z,28.4330,-82.6670,0.328,1111122 
COMPS,ioos:station:USF.COMPS:ARP:1,2009-11-01T17:06:00Z,28.4330,-82.6670,0.34,1111122 
COMPS,ioos:station:USF.COMPS:ARP:1,2009-11-01T17:12:00Z,28.4330,-82.6670,0.35,1111122 
COMPS,ioos:station:USF.COMPS:ARP:1,2009-11-01T17:18:00Z,28.4330,-82.6670,0.36,1111122 
COMPS,ioos:station:USF.COMPS:ARP:1,2009-11-01T17:24:00Z,28.4330,-82.6670,0.369,1111122 
COMPS,ioos:station:USF.COMPS:ARP:1,2009-11-01T17:30:00Z,28.4330,-82.6670,0.378,1111122 
COMPS,ioos:station:USF.COMPS:ARP:1,2009-11-01T17:36:00Z,28.4330,-82.6670,0.385,1111122 
COMPS,ioos:station:USF.COMPS:ARP:1,2009-11-01T17:42:00Z,28.4330,-82.6670,0.39,1111122 
COMPS,ioos:station:USF.COMPS:ARP:1,2009-11-01T17:48:00Z,28.4330,-82.6670,0.395,1111122 
COMPS,ioos:station:USF.COMPS:ARP:1,2009-11-01T17:54:00Z,28.4330,-82.6670,0.4,1111122 
COMPS,ioos:station:USF.COMPS:ARP:1,2009-11-01T18:00:00Z,28.4330,-82.6670,0.399,1111122 
COMPS,ioos:station:USF.COMPS:ARP:1,2009-11-01T18:06:00Z,28.4330,-82.6670,0.401,1111122 
COMPS,ioos:station:USF.COMPS:ARP:1,2009-11-01T18:12:00Z,28.4330,-82.6670,0.402,1111122 
COMPS,ioos:station:USF.COMPS:ARP:1,2009-11-01T18:18:00Z,28.4330,-82.6670,0.404,1111122 
COMPS,ioos:station:USF.COMPS:ARP:1,2009-11-01T18:24:00Z,28.4330,-82.6670,0.405,1111122 
COMPS,ioos:station:USF.COMPS:ARP:1,2009-11-01T18:30:00Z,28.4330,-82.6670,0.4,1111122 
COMPS,ioos:station:USF.COMPS:ARP:1,2009-11-01T18:36:00Z,28.4330,-82.6670,0.393,1111122 
COMPS,ioos:station:USF.COMPS:ARP:1,2009-11-01T18:42:00Z,28.4330,-82.6670,0.386,1111122 
COMPS,ioos:station:USF.COMPS:ARP:1,2009-11-01T18:48:00Z,28.4330,-82.6670,0.378,1111122 
COMPS,ioos:station:USF.COMPS:ARP:1,2009-11-01T18:54:00Z,28.4330,-82.6670,0.369,1111122 
COMPS,ioos:station:USF.COMPS:ARP:1,2009-11-01T19:00:00Z,28.4330,-82.6670,0.357,1111122 
COMPS,ioos:station:USF.COMPS:ARP:1,2009-11-01T19:06:00Z,28.4330,-82.6670,0.35,1111122 
COMPS,ioos:station:USF.COMPS:ARP:1,2009-11-01T19:12:00Z,28.4330,-82.6670,0.34,1111122 
COMPS,ioos:station:USF.COMPS:ARP:1,2009-11-01T19:18:00Z,28.4330,-82.6670,0.333,1111122 
COMPS,ioos:station:USF.COMPS:ARP:1,2009-11-01T19:24:00Z,28.4330,-82.6670,0.324,1111122 
COMPS,ioos:station:USF.COMPS:ARP:1,2009-11-01T19:30:00Z,28.4330,-82.6670,0.311,1111122 
COMPS,ioos:station:USF.COMPS:ARP:1,2009-11-01T19:36:00Z,28.4330,-82.6670,0.299,1111122 
COMPS,ioos:station:USF.COMPS:ARP:1,2009-11-01T19:42:00Z,28.4330,-82.6670,0.287,1111122 
COMPS,ioos:station:USF.COMPS:ARP:1,2009-11-01T19:48:00Z,28.4330,-82.6670,0.27,1111122 
COMPS,ioos:station:USF.COMPS:ARP:1,2009-11-01T19:54:00Z,28.4330,-82.6670,0.255,1111122 
COMPS,ioos:station:USF.COMPS:ARP:1,2009-11-01T20:00:00Z,28.4330,-82.6670,0.24,1111122 
COMPS,ioos:station:USF.COMPS:ARP:1,2009-11-01T20:06:00Z,28.4330,-82.6670,0.225,1111122 
COMPS,ioos:station:USF.COMPS:ARP:1,2009-11-01T20:12:00Z,28.4330,-82.6670,0.21,1111122 
COMPS,ioos:station:USF.COMPS:ARP:1,2009-11-01T20:18:00Z,28.4330,-82.6670,0.197,1111122 
COMPS,ioos:station:USF.COMPS:ARP:1,2009-11-01T20:24:00Z,28.4330,-82.6670,0.182,1111122 
COMPS,ioos:station:USF.COMPS:ARP:1,2009-11-01T20:30:00Z,28.4330,-82.6670,0.167,1111122 
COMPS,ioos:station:USF.COMPS:ARP:1,2009-11-01T20:36:00Z,28.4330,-82.6670,0.153,1111122 
COMPS,ioos:station:USF.COMPS:ARP:1,2009-11-01T20:42:00Z,28.4330,-82.6670,0.14,1111122 
COMPS,ioos:station:USF.COMPS:ARP:1,2009-11-01T20:48:00Z,28.4330,-82.6670,0.125,1111122 
COMPS,ioos:station:USF.COMPS:ARP:1,2009-11-01T20:54:00Z,28.4330,-82.6670,0.11,1111122 
COMPS,ioos:station:USF.COMPS:ARP:1,2009-11-01T21:00:00Z,28.4330,-82.6670,0.096,1111122 
COMPS,ioos:station:USF.COMPS:ARP:1,2009-11-01T21:06:00Z,28.4330,-82.6670,0.081,1111122 
COMPS,ioos:station:USF.COMPS:ARP:1,2009-11-01T21:12:00Z,28.4330,-82.6670,0.066,1111122 
COMPS,ioos:station:USF.COMPS:ARP:1,2009-11-01T21:18:00Z,28.4330,-82.6670,0.052,1111122 
COMPS,ioos:station:USF.COMPS:ARP:1,2009-11-01T21:24:00Z,28.4330,-82.6670,0.038,1111122 
COMPS,ioos:station:USF.COMPS:ARP:1,2009-11-01T21:30:00Z,28.4330,-82.6670,0.025,1111122 
COMPS,ioos:station:USF.COMPS:ARP:1,2009-11-01T21:36:00Z,28.4330,-82.6670,0.011,1111122 
COMPS,ioos:station:USF.COMPS:ARP:1,2009-11-01T21:42:00Z,28.4330,-82.6670,-0.002,1111122 
COMPS,ioos:station:USF.COMPS:ARP:1,2009-11-01T21:48:00Z,28.4330,-82.6670,-0.014,1111122 
COMPS,ioos:station:USF.COMPS:ARP:1,2009-11-01T21:54:00Z,28.4330,-82.6670,-0.026,1111122 
COMPS,ioos:station:USF.COMPS:ARP:1,2009-11-01T22:00:00Z,28.4330,-82.6670,-0.039,1111122 
COMPS,ioos:station:USF.COMPS:ARP:1,2009-11-01T22:06:00Z,28.4330,-82.6670,-0.051,1111122 
COMPS,ioos:station:USF.COMPS:ARP:1,2009-11-01T22:12:00Z,28.4330,-82.6670,-0.062,1111122 
COMPS,ioos:station:USF.COMPS:ARP:1,2009-11-01T22:18:00Z,28.4330,-82.6670,-0.075,1111122 
COMPS,ioos:station:USF.COMPS:ARP:1,2009-11-01T22:24:00Z,28.4330,-82.6670,-0.085,1111122 
COMPS,ioos:station:USF.COMPS:ARP:1,2009-11-01T22:30:00Z,28.4330,-82.6670,-0.094,1111122 
COMPS,ioos:station:USF.COMPS:ARP:1,2009-11-01T22:36:00Z,28.4330,-82.6670,-0.103,1111122 
COMPS,ioos:station:USF.COMPS:ARP:1,2009-11-01T22:42:00Z,28.4330,-82.6670,-0.113,1111122 
COMPS,ioos:station:USF.COMPS:ARP:1,2009-11-01T22:48:00Z,28.4330,-82.6670,-0.121,1111122 
COMPS,ioos:station:USF.COMPS:ARP:1,2009-11-01T22:54:00Z,28.4330,-82.6670,-0.127,1111122 
COMPS,ioos:station:USF.COMPS:ARP:1,2009-11-01T23:00:00Z,28.4330,-82.6670,-0.134,1111122 
COMPS,ioos:station:USF.COMPS:ARP:1,2009-11-01T23:06:00Z,28.4330,-82.6670,-0.139,1111122 
COMPS,ioos:station:USF.COMPS:ARP:1,2009-11-01T23:12:00Z,28.4330,-82.6670,-0.141,1111122 
COMPS,ioos:station:USF.COMPS:ARP:1,2009-11-01T23:18:00Z,28.4330,-82.6670,-0.145,1111122 
COMPS,ioos:station:USF.COMPS:ARP:1,2009-11-01T23:24:00Z,28.4330,-82.6670,-0.145,1111122 
COMPS,ioos:station:USF.COMPS:ARP:1,2009-11-01T23:30:00Z,28.4330,-82.6670,-0.141,1111122 
COMPS,ioos:station:USF.COMPS:ARP:1,2009-11-01T23:36:00Z,28.4330,-82.6670,-0.136,1111122 
COMPS,ioos:station:USF.COMPS:ARP:1,2009-11-01T23:42:00Z,28.4330,-82.6670,-0.129,1111122 
COMPS,ioos:station:USF.COMPS:ARP:1,2009-11-01T23:48:00Z,28.4330,-82.6670,-0.121,1111122 
COMPS,ioos:station:USF.COMPS:ARP:1,2009-11-01T23:54:00Z,28.4330,-82.6670,-0.11,1111122 
COMPS,ioos:station:USF.COMPS:ARP:1,2009-11-02T00:00:00Z,28.4330,-82.6670,-0.101,1111122 
COMPS,ioos:station:USF.COMPS:ARP:1,2009-11-02T00:06:00Z,28.4330,-82.6670,-0.089,1111122 
COMPS,ioos:station:USF.COMPS:ARP:1,2009-11-02T00:12:00Z,28.4330,-82.6670,-0.077,1111122 
COMPS,ioos:station:USF.COMPS:ARP:1,2009-11-02T00:18:00Z,28.4330,-82.6670,-0.066,1111122 
COMPS,ioos:station:USF.COMPS:ARP:1,2009-11-02T00:24:00Z,28.4330,-82.6670,-0.052,1111122 
COMPS,ioos:station:USF.COMPS:ARP:1,2009-11-02T00:30:00Z,28.4330,-82.6670,-0.041,1111122 
COMPS,ioos:station:USF.COMPS:ARP:1,2009-11-02T00:36:00Z,28.4330,-82.6670,-0.028,1111122 
COMPS,ioos:station:USF.COMPS:ARP:1,2009-11-02T00:42:00Z,28.4330,-82.6670,-0.015,1111122 
COMPS,ioos:station:USF.COMPS:ARP:1,2009-11-02T00:48:00Z,28.4330,-82.6670,-0.002,1111122 
COMPS,ioos:station:USF.COMPS:ARP:1,2009-11-02T00:54:00Z,28.4330,-82.6670,0.011,1111122 
COMPS,ioos:station:USF.COMPS:ARP:1,2009-11-02T01:00:00Z,28.4330,-82.6670,0.026,1111122 
COMPS,ioos:station:USF.COMPS:ARP:1,2009-11-02T01:06:00Z,28.4330,-82.6670,0.039,1111122 
COMPS,ioos:station:USF.COMPS:ARP:1,2009-11-02T01:12:00Z,28.4330,-82.6670,0.054,1111122 
COMPS,ioos:station:USF.COMPS:ARP:1,2009-11-02T01:18:00Z,28.4330,-82.6670,0.069,1111122 
COMPS,ioos:station:USF.COMPS:ARP:1,2009-11-02T01:24:00Z,28.4330,-82.6670,0.085,1111122 
COMPS,ioos:station:USF.COMPS:ARP:1,2009-11-02T01:30:00Z,28.4330,-82.6670,0.101,1111122 
COMPS,ioos:station:USF.COMPS:ARP:1,2009-11-02T01:36:00Z,28.4330,-82.6670,0.12,1111122 
COMPS,ioos:station:USF.COMPS:ARP:1,2009-11-02T01:42:00Z,28.4330,-82.6670,0.138,1111122 
COMPS,ioos:station:USF.COMPS:ARP:1,2009-11-02T01:48:00Z,28.4330,-82.6670,0.156,1111122 
COMPS,ioos:station:USF.COMPS:ARP:1,2009-11-02T01:54:00Z,28.4330,-82.6670,0.172,1111122 
COMPS,ioos:station:USF.COMPS:ARP:1,2009-11-02T02:00:00Z,28.4330,-82.6670,0.19,1111122 
COMPS,ioos:station:USF.COMPS:ARP:1,2009-11-02T02:06:00Z,28.4330,-82.6670,0.208,1111122 
COMPS,ioos:station:USF.COMPS:ARP:1,2009-11-02T02:12:00Z,28.4330,-82.6670,0.226,1111122 
COMPS,ioos:station:USF.COMPS:ARP:1,2009-11-02T02:18:00Z,28.4330,-82.6670,0.245,1111122 
COMPS,ioos:station:USF.COMPS:ARP:1,2009-11-02T02:24:00Z,28.4330,-82.6670,0.267,1111122 
COMPS,ioos:station:USF.COMPS:ARP:1,2009-11-02T02:30:00Z,28.4330,-82.6670,0.286,1111122 
COMPS,ioos:station:USF.COMPS:ARP:1,2009-11-02T02:36:00Z,28.4330,-82.6670,0.307,1111122 
COMPS,ioos:station:USF.COMPS:ARP:1,2009-11-02T02:42:00Z,28.4330,-82.6670,0.327,1111122 
COMPS,ioos:station:USF.COMPS:ARP:1,2009-11-02T02:48:00Z,28.4330,-82.6670,0.345,1111122 
COMPS,ioos:station:USF.COMPS:ARP:1,2009-11-02T02:54:00Z,28.4330,-82.6670,0.362,1111122 
COMPS,ioos:station:USF.COMPS:ARP:1,2009-11-02T03:00:00Z,28.4330,-82.6670,0.379,1111122 